LOB4223 KACY-KBGR

Flight info

Callsign LOB4223
Flight time 1h 12m
Altitude 35000
Route BRIGS MAD PEASE ENE
Aircraft B738/M-SDE2E3FGHIRWXY/LB1

Departure

Time 2026-04-26 17:44
Airport Atlantic City International Airport (KACY)

Arrival

Time 2026-04-26 18:57
Airport Bangor International Airport (KBGR)
Time Latitude Longitude Altitude Speed Heading
2026-04-26 17:23 39.45040 -74.56578 78 ft 0 kts 206°
2026-04-26 17:30 39.45058 -74.56569 71 ft 4 kts 158°
2026-04-26 17:30 39.45071 -74.56591 70 ft 4 kts 114°
2026-04-26 17:30 39.45074 -74.56601 78 ft 0 kts 119°
2026-04-26 17:36 39.45075 -74.56595 69 ft 1 kts 78°
2026-04-26 17:36 39.45087 -74.56599 70 ft 3 kts 323°
2026-04-26 17:36 39.45110 -74.56632 74 ft 6 kts 306°
2026-04-26 17:37 39.45136 -74.56688 74 ft 8 kts 298°
2026-04-26 17:37 39.45164 -74.56760 71 ft 10 kts 297°
2026-04-26 17:37 39.45219 -74.56797 69 ft 10 kts 16°
2026-04-26 17:38 39.45336 -74.56839 72 ft 11 kts 300°
2026-04-26 17:38 39.45375 -74.56932 75 ft 12 kts 298°
2026-04-26 17:38 39.45413 -74.57023 74 ft 11 kts 298°
2026-04-26 17:38 39.45451 -74.57112 72 ft 11 kts 300°
2026-04-26 17:39 39.45471 -74.57203 77 ft 11 kts 260°
2026-04-26 17:39 39.45435 -74.57286 73 ft 10 kts 236°
2026-04-26 17:39 39.45395 -74.57363 74 ft 10 kts 236°
2026-04-26 17:39 39.45356 -74.57437 69 ft 10 kts 235°
2026-04-26 17:40 39.45317 -74.57509 72 ft 10 kts 236°
2026-04-26 17:40 39.45293 -74.57556 73 ft 9 kts 236°
2026-04-26 17:40 39.45244 -74.57649 71 ft 9 kts 236°
2026-04-26 17:40 39.45209 -74.57716 73 ft 9 kts 235°
2026-04-26 17:41 39.45173 -74.57782 71 ft 10 kts 235°
2026-04-26 17:41 39.45131 -74.57862 69 ft 12 kts 236°
2026-04-26 17:41 39.45086 -74.57955 69 ft 12 kts 253°
2026-04-26 17:41 39.45124 -74.58047 71 ft 12 kts 314°
2026-04-26 17:42 39.45181 -74.58122 70 ft 10 kts 304°
2026-04-26 17:42 39.45155 -74.58192 71 ft 10 kts 208°
2026-04-26 17:42 39.45096 -74.58233 70 ft 10 kts 208°
2026-04-26 17:42 39.45039 -74.58272 70 ft 9 kts 208°
2026-04-26 17:43 39.44982 -74.58311 73 ft 9 kts 208°
2026-04-26 17:43 39.44933 -74.58357 70 ft 9 kts 250°
2026-04-26 17:43 39.44952 -74.58432 71 ft 9 kts 297°
2026-04-26 17:43 39.44990 -74.58487 72 ft 8 kts 347°
2026-04-26 17:44 39.45042 -74.58467 71 ft 10 kts 24°
2026-04-26 17:44 39.45300 -74.58296 68 ft 83 kts 28°
2026-04-26 17:44 39.46075 -74.57779 110 ft 162 kts 26°
2026-04-26 17:44 39.47150 -74.56988 842 ft 191 kts 31°
2026-04-26 17:45 39.48272 -74.55910 1818 ft 202 kts 50°
2026-04-26 17:45 39.48683 -74.54172 3237 ft 200 kts 90°
2026-04-26 17:45 39.48544 -74.52420 4042 ft 210 kts 91°
2026-04-26 17:45 39.48442 -74.50400 4354 ft 240 kts 88°
2026-04-26 17:46 39.48434 -74.48186 5115 ft 249 kts 85°
2026-04-26 17:46 39.48500 -74.45929 5982 ft 253 kts 83°
2026-04-26 17:46 39.48636 -74.43633 6889 ft 254 kts 83°
2026-04-26 17:46 39.48874 -74.41333 7638 ft 261 kts 78°
2026-04-26 17:47 39.49157 -74.38975 8396 ft 268 kts 77°
2026-04-26 17:47 39.49360 -74.37385 8902 ft 274 kts 78°
2026-04-26 17:47 39.49724 -74.34059 9936 ft 284 kts 77°
2026-04-26 17:47 39.50039 -74.31488 10497 ft 297 kts 76°
2026-04-26 17:48 39.50405 -74.28730 10683 ft 324 kts 76°
2026-04-26 17:48 39.50815 -74.25791 11141 ft 337 kts 76°
2026-04-26 17:48 39.51226 -74.22767 11848 ft 343 kts 76°
2026-04-26 17:48 39.51635 -74.19712 12611 ft 347 kts 76°
2026-04-26 17:49 39.52085 -74.16639 13332 ft 350 kts 70°
2026-04-26 17:49 39.53157 -74.13851 14028 ft 345 kts 46°
2026-04-26 17:49 39.54910 -74.11792 14734 ft 339 kts 29°
2026-04-26 17:49 39.56908 -74.10193 15490 ft 340 kts 26°
2026-04-26 17:50 39.58956 -74.08621 16177 ft 342 kts 26°
2026-04-26 17:50 39.61016 -74.07051 16861 ft 345 kts 26°
2026-04-26 17:50 39.63093 -74.05454 17566 ft 348 kts 26°
2026-04-26 17:50 39.65183 -74.03833 18261 ft 351 kts 26°
2026-04-26 17:51 39.67285 -74.02194 18876 ft 355 kts 26°
2026-04-26 17:51 39.69382 -74.00554 19424 ft 359 kts 26°
2026-04-26 17:51 39.71569 -73.98838 19933 ft 365 kts 26°
2026-04-26 17:51 39.73731 -73.97138 20429 ft 370 kts 26°
2026-04-26 17:52 39.75943 -73.95394 20987 ft 374 kts 27°
2026-04-26 17:52 39.78173 -73.93633 21534 ft 378 kts 27°
2026-04-26 17:52 39.80434 -73.91846 22080 ft 381 kts 27°
2026-04-26 17:52 39.82711 -73.90043 22624 ft 385 kts 27°
2026-04-26 17:53 39.85009 -73.88224 23113 ft 389 kts 27°
2026-04-26 17:53 39.87333 -73.86382 23597 ft 394 kts 27°
2026-04-26 17:53 39.89689 -73.84514 24029 ft 398 kts 27°
2026-04-26 17:54 39.94466 -73.80721 24813 ft 406 kts 27°
2026-04-26 17:54 39.96891 -73.78793 25187 ft 411 kts 27°
2026-04-26 17:54 39.99337 -73.76845 25605 ft 414 kts 27°
2026-04-26 17:54 40.01801 -73.74882 26084 ft 415 kts 27°
2026-04-26 17:55 40.04275 -73.72909 26458 ft 419 kts 27°
2026-04-26 17:55 40.06774 -73.70916 26788 ft 424 kts 27°
2026-04-26 17:55 40.09301 -73.68898 27135 ft 428 kts 27°
2026-04-26 17:55 40.11850 -73.66862 27499 ft 431 kts 27°
2026-04-26 17:56 40.14417 -73.64808 27834 ft 435 kts 27°
2026-04-26 17:56 40.19654 -73.60583 28475 ft 443 kts 28°
2026-04-26 17:57 40.24909 -73.56294 29108 ft 450 kts 27°
2026-04-26 17:57 40.27599 -73.54151 29394 ft 454 kts 27°
2026-04-26 17:57 40.30302 -73.52000 29756 ft 456 kts 27°
2026-04-26 17:57 40.33014 -73.49835 30089 ft 459 kts 27°
2026-04-26 17:58 40.41208 -73.43258 31203 ft 459 kts 27°
2026-04-26 17:59 40.46720 -73.38818 31447 ft 469 kts 27°
2026-04-26 17:59 40.49498 -73.36566 31741 ft 470 kts 27°
2026-04-26 17:59 40.52285 -73.34303 31997 ft 472 kts 27°
2026-04-26 17:59 40.55078 -73.32033 32231 ft 474 kts 27°
2026-04-26 18:00 40.57883 -73.29751 32650 ft 471 kts 27°
2026-04-26 18:00 40.60675 -73.27478 32836 ft 475 kts 27°
2026-04-26 18:00 40.66350 -73.22861 33139 ft 482 kts 27°
2026-04-26 18:01 40.69195 -73.20540 33524 ft 480 kts 27°
2026-04-26 18:01 40.71998 -73.18249 33864 ft 480 kts 27°
2026-04-26 18:01 40.74845 -73.15922 34139 ft 481 kts 27°
2026-04-26 18:01 40.77668 -73.13612 34417 ft 481 kts 27°
2026-04-26 18:02 40.80522 -73.11274 34760 ft 478 kts 27°
2026-04-26 18:02 40.82430 -73.09709 34970 ft 477 kts 27°
2026-04-26 18:02 40.86166 -73.06644 35287 ft 478 kts 27°
2026-04-26 18:02 40.88976 -73.04337 35501 ft 478 kts 27°
2026-04-26 18:03 40.91810 -73.02007 35750 ft 477 kts 27°
2026-04-26 18:03 40.94630 -72.99686 36065 ft 476 kts 27°
2026-04-26 18:03 40.97426 -72.97381 36411 ft 473 kts 27°
2026-04-26 18:03 41.00213 -72.95082 36662 ft 472 kts 27°
2026-04-26 18:04 41.05821 -72.90454 36830 ft 478 kts 27°
2026-04-26 18:04 41.08646 -72.88117 37062 ft 477 kts 27°
2026-04-26 18:05 41.14242 -72.83469 37716 ft 472 kts 28°
2026-04-26 18:05 41.17010 -72.81132 37979 ft 471 kts 28°
2026-04-26 18:05 41.19781 -72.78821 38141 ft 471 kts 28°
2026-04-26 18:05 41.22568 -72.76518 38285 ft 471 kts 27°
2026-04-26 18:06 41.25349 -72.74222 38484 ft 471 kts 28°
2026-04-26 18:06 41.28125 -72.71918 38710 ft 470 kts 28°
2026-04-26 18:06 41.30891 -72.69609 38916 ft 469 kts 28°
2026-04-26 18:06 41.33588 -72.67180 39151 ft 468 kts 32°
2026-04-26 18:07 41.36203 -72.64583 39179 ft 471 kts 34°
2026-04-26 18:07 41.41374 -72.59182 39179 ft 473 kts 35°
2026-04-26 18:08 41.46567 -72.53854 39222 ft 472 kts 32°
2026-04-26 18:08 41.51854 -72.48626 39182 ft 473 kts 33°
2026-04-26 18:09 41.57036 -72.43210 39182 ft 473 kts 34°
2026-04-26 18:09 41.62221 -72.37802 39182 ft 473 kts 33°
2026-04-26 18:10 41.67422 -72.32430 39196 ft 472 kts 33°
2026-04-26 18:10 41.72631 -72.27070 39181 ft 472 kts 33°
2026-04-26 18:11 41.77798 -72.21745 39177 ft 471 kts 33°
2026-04-26 18:11 41.82986 -72.16385 39204 ft 471 kts 34°
2026-04-26 18:12 41.88167 -72.11020 39190 ft 470 kts 34°
2026-04-26 18:12 41.93340 -72.05650 39184 ft 470 kts 34°
2026-04-26 18:13 41.98506 -72.00277 39188 ft 469 kts 34°
2026-04-26 18:13 42.03659 -71.94906 39194 ft 469 kts 34°
2026-04-26 18:14 42.08806 -71.89531 39182 ft 468 kts 34°
2026-04-26 18:14 42.13943 -71.84153 39186 ft 468 kts 34°
2026-04-26 18:15 42.19077 -71.78769 39186 ft 467 kts 35°
2026-04-26 18:15 42.24207 -71.73377 39176 ft 468 kts 35°
2026-04-26 18:16 42.29334 -71.67976 39182 ft 468 kts 35°
2026-04-26 18:16 42.36994 -71.59887 39205 ft 468 kts 36°
2026-04-26 18:17 42.42123 -71.54455 39191 ft 468 kts 35°
2026-04-26 18:17 42.47247 -71.49017 39198 ft 468 kts 36°
2026-04-26 18:18 42.52372 -71.43567 39209 ft 468 kts 36°
2026-04-26 18:18 42.57496 -71.38106 39197 ft 468 kts 36°
2026-04-26 18:19 42.62615 -71.32638 39192 ft 468 kts 36°
2026-04-26 18:19 42.67730 -71.27163 39207 ft 468 kts 36°
2026-04-26 18:20 42.72840 -71.21682 39210 ft 467 kts 36°
2026-04-26 18:20 42.76250 -71.18017 39211 ft 467 kts 36°
2026-04-26 18:21 42.83019 -71.10725 39205 ft 466 kts 37°
2026-04-26 18:21 42.88092 -71.05237 39211 ft 464 kts 37°
2026-04-26 18:22 42.93146 -70.99767 39183 ft 463 kts 37°
2026-04-26 18:22 42.98178 -70.94315 39179 ft 461 kts 37°
2026-04-26 18:23 43.03193 -70.88869 39191 ft 460 kts 37°
2026-04-26 18:23 43.08233 -70.83512 39175 ft 457 kts 31°
2026-04-26 18:24 43.10987 -70.81351 38964 ft 459 kts 24°
2026-04-26 18:24 43.13893 -70.79494 38420 ft 461 kts 22°
2026-04-26 18:24 43.15830 -70.78310 38066 ft 460 kts 22°
2026-04-26 18:24 43.18765 -70.76528 37711 ft 462 kts 22°
2026-04-26 18:25 43.21706 -70.74720 37258 ft 464 kts 22°
2026-04-26 18:25 43.24649 -70.72880 36866 ft 465 kts 23°
2026-04-26 18:25 43.27593 -70.71013 36468 ft 467 kts 23°
2026-04-26 18:25 43.30544 -70.69127 36057 ft 468 kts 23°
2026-04-26 18:26 43.33499 -70.67234 35664 ft 470 kts 23°
2026-04-26 18:26 43.36465 -70.65334 35242 ft 471 kts 23°
2026-04-26 18:26 43.39440 -70.63428 34820 ft 473 kts 23°
2026-04-26 18:26 43.42375 -70.61370 34372 ft 475 kts 30°
2026-04-26 18:27 43.45063 -70.58706 33917 ft 477 kts 40°
2026-04-26 18:27 43.47553 -70.55692 33481 ft 477 kts 40°
2026-04-26 18:27 43.50035 -70.52667 33033 ft 477 kts 40°
2026-04-26 18:27 43.52524 -70.49641 32605 ft 476 kts 41°
2026-04-26 18:28 43.55001 -70.46644 32181 ft 476 kts 41°
2026-04-26 18:28 43.57503 -70.43631 31757 ft 475 kts 41°
2026-04-26 18:28 43.59996 -70.40637 31337 ft 475 kts 41°
2026-04-26 18:28 43.62484 -70.37652 30918 ft 474 kts 41°
2026-04-26 18:29 43.64977 -70.34661 30505 ft 474 kts 41°
2026-04-26 18:29 43.67465 -70.31672 30050 ft 473 kts 41°
2026-04-26 18:29 43.69919 -70.28737 29586 ft 472 kts 42°
2026-04-26 18:29 43.72398 -70.25682 29136 ft 471 kts 41°
2026-04-26 18:30 43.74862 -70.22709 28682 ft 469 kts 41°
2026-04-26 18:30 43.77319 -70.19742 28235 ft 469 kts 41°
2026-04-26 18:30 43.79779 -70.16781 27792 ft 468 kts 41°
2026-04-26 18:30 43.82208 -70.13861 27374 ft 468 kts 41°
2026-04-26 18:31 43.84693 -70.10855 26922 ft 468 kts 41°
2026-04-26 18:31 43.87100 -70.07917 26487 ft 468 kts 41°
2026-04-26 18:31 43.89557 -70.04970 26041 ft 468 kts 41°
2026-04-26 18:31 43.91995 -70.02042 25709 ft 453 kts 41°
2026-04-26 18:32 43.94297 -69.99247 25444 ft 431 kts 42°
2026-04-26 18:32 43.96499 -69.96559 25181 ft 411 kts 42°
2026-04-26 18:32 43.98602 -69.93986 24926 ft 399 kts 42°
2026-04-26 18:32 44.00694 -69.91417 24623 ft 406 kts 43°
2026-04-26 18:33 44.02793 -69.88739 24246 ft 414 kts 42°
2026-04-26 18:33 44.04976 -69.86078 23840 ft 422 kts 41°
2026-04-26 18:33 44.07206 -69.83366 23359 ft 428 kts 42°
2026-04-26 18:33 44.09436 -69.80589 22898 ft 433 kts 42°
2026-04-26 18:34 44.11724 -69.77833 22457 ft 437 kts 41°
2026-04-26 18:34 44.14033 -69.75072 22034 ft 439 kts 41°
2026-04-26 18:34 44.16349 -69.72264 21576 ft 442 kts 42°
2026-04-26 18:34 44.18654 -69.69425 21141 ft 443 kts 42°
2026-04-26 18:35 44.20968 -69.66577 20760 ft 444 kts 42°
2026-04-26 18:35 44.23235 -69.63774 20694 ft 423 kts 42°
2026-04-26 18:35 44.25365 -69.61132 20503 ft 397 kts 43°
2026-04-26 18:35 44.27368 -69.58648 20364 ft 374 kts 43°
2026-04-26 18:36 44.29256 -69.56307 20080 ft 356 kts 43°
2026-04-26 18:36 44.31100 -69.54018 19422 ft 353 kts 43°
2026-04-26 18:36 44.32916 -69.51741 18830 ft 348 kts 43°
2026-04-26 18:36 44.34702 -69.49507 18214 ft 343 kts 43°
2026-04-26 18:37 44.36478 -69.47306 17561 ft 339 kts 43°
2026-04-26 18:37 44.38219 -69.45152 17139 ft 329 kts 43°
2026-04-26 18:37 44.39906 -69.43063 16775 ft 318 kts 43°
2026-04-26 18:37 44.41535 -69.41041 16435 ft 309 kts 43°
2026-04-26 18:38 44.43115 -69.39077 16110 ft 299 kts 43°
2026-04-26 18:38 44.44647 -69.37169 15815 ft 290 kts 43°
2026-04-26 18:38 44.46135 -69.35314 15516 ft 282 kts 43°
2026-04-26 18:38 44.47584 -69.33506 15227 ft 276 kts 43°
2026-04-26 18:39 44.49007 -69.31729 14954 ft 273 kts 43°
2026-04-26 18:39 44.50422 -69.29959 14684 ft 274 kts 43°
2026-04-26 18:39 44.51868 -69.28150 14426 ft 286 kts 43°
2026-04-26 18:39 44.53376 -69.26260 14115 ft 294 kts 43°
2026-04-26 18:40 44.54864 -69.24395 13765 ft 288 kts 43°
2026-04-26 18:40 44.56362 -69.22518 13426 ft 280 kts 43°
2026-04-26 18:40 44.57776 -69.20746 13125 ft 272 kts 43°
2026-04-26 18:40 44.59155 -69.19016 12860 ft 265 kts 43°
2026-04-26 18:41 44.60548 -69.17267 12579 ft 263 kts 43°
2026-04-26 18:41 44.61895 -69.15573 12312 ft 265 kts 43°
2026-04-26 18:41 44.62994 -69.13501 11819 ft 270 kts 72°
2026-04-26 18:41 44.63182 -69.10891 11340 ft 270 kts 91°
2026-04-26 18:42 44.63130 -69.08248 10810 ft 271 kts 91°
2026-04-26 18:42 44.63074 -69.05601 10356 ft 270 kts 91°
2026-04-26 18:42 44.63030 -69.02987 9977 ft 265 kts 91°
2026-04-26 18:42 44.62998 -69.00477 9885 ft 249 kts 91°
2026-04-26 18:43 44.62975 -68.98084 9605 ft 243 kts 90°
2026-04-26 18:43 44.62956 -68.95717 9196 ft 242 kts 90°
2026-04-26 18:43 44.62941 -68.93366 8795 ft 240 kts 90°
2026-04-26 18:43 44.62927 -68.91025 8399 ft 239 kts 90°
2026-04-26 18:44 44.62915 -68.88697 8015 ft 238 kts 90°
2026-04-26 18:44 44.62904 -68.86383 7638 ft 236 kts 90°
2026-04-26 18:44 44.62893 -68.84084 7284 ft 235 kts 90°
2026-04-26 18:44 44.62883 -68.81797 6929 ft 234 kts 90°
2026-04-26 18:45 44.62871 -68.79515 6586 ft 231 kts 90°
2026-04-26 18:45 44.62861 -68.77322 6439 ft 221 kts 90°
2026-04-26 18:45 44.62848 -68.75170 6086 ft 220 kts 92°
2026-04-26 18:45 44.62806 -68.73015 5696 ft 221 kts 89°
2026-04-26 18:46 44.62817 -68.70861 5336 ft 220 kts 89°
2026-04-26 18:46 44.62820 -68.68708 4959 ft 221 kts 89°
2026-04-26 18:46 44.62808 -68.66561 4674 ft 219 kts 90°
2026-04-26 18:46 44.62794 -68.64441 4569 ft 216 kts 90°
2026-04-26 18:47 44.62780 -68.62331 4454 ft 218 kts 90°
2026-04-26 18:47 44.62766 -68.60206 4393 ft 216 kts 89°
2026-04-26 18:47 44.62752 -68.58142 4278 ft 207 kts 90°
2026-04-26 18:47 44.62687 -68.56181 4075 ft 197 kts 96°
2026-04-26 18:48 44.62520 -68.54311 3823 ft 189 kts 97°
2026-04-26 18:48 44.62352 -68.52516 3606 ft 180 kts 95°
2026-04-26 18:48 44.62055 -68.50837 3618 ft 179 kts 104°
2026-04-26 18:48 44.61640 -68.49186 3593 ft 182 kts 124°
2026-04-26 18:49 44.61010 -68.47684 3595 ft 179 kts 102°
2026-04-26 18:49 44.61148 -68.45999 3589 ft 176 kts 59°
2026-04-26 18:49 44.62047 -68.44917 3590 ft 174 kts 17°
2026-04-26 18:49 44.63227 -68.44987 3594 ft 174 kts 334°
2026-04-26 18:50 44.64061 -68.46175 3591 ft 176 kts 292°
2026-04-26 18:50 44.64380 -68.47828 3619 ft 177 kts 289°
2026-04-26 18:50 44.64802 -68.49439 3627 ft 180 kts 291°
2026-04-26 18:50 44.65255 -68.51111 3633 ft 182 kts 291°
2026-04-26 18:51 44.65699 -68.52780 3640 ft 183 kts 291°
2026-04-26 18:51 44.66132 -68.54438 3622 ft 179 kts 291°
2026-04-26 18:51 44.66548 -68.56050 3613 ft 177 kts 291°
2026-04-26 18:51 44.66966 -68.57682 3628 ft 178 kts 290°
2026-04-26 18:52 44.67383 -68.59325 3621 ft 171 kts 290°
2026-04-26 18:52 44.67643 -68.60357 3619 ft 168 kts 290°
2026-04-26 18:52 44.68163 -68.62415 3369 ft 168 kts 290°
2026-04-26 18:52 44.68549 -68.63949 3186 ft 166 kts 291°
2026-04-26 18:53 44.68940 -68.65469 3016 ft 165 kts 295°
2026-04-26 18:53 44.69640 -68.66718 2849 ft 163 kts 317°
2026-04-26 18:53 44.70437 -68.67846 2792 ft 159 kts 315°
2026-04-26 18:53 44.71194 -68.68948 2614 ft 151 kts 315°
2026-04-26 18:54 44.71909 -68.69990 2401 ft 146 kts 313°
2026-04-26 18:54 44.72603 -68.71012 2191 ft 144 kts 313°
2026-04-26 18:54 44.73307 -68.72034 2032 ft 147 kts 314°
2026-04-26 18:54 44.74019 -68.73063 1802 ft 144 kts 313°
2026-04-26 18:55 44.74712 -68.74070 1604 ft 143 kts 314°
2026-04-26 18:55 44.75410 -68.75082 1417 ft 144 kts 314°
2026-04-26 18:55 44.76100 -68.76082 1223 ft 142 kts 314°
2026-04-26 18:55 44.76795 -68.77091 1027 ft 145 kts 313°
2026-04-26 18:56 44.77505 -68.78124 825 ft 148 kts 312°
2026-04-26 18:56 44.78224 -68.79165 620 ft 149 kts 312°
2026-04-26 18:56 44.78944 -68.80211 409 ft 149 kts 311°
2026-04-26 18:56 44.79671 -68.81264 213 ft 150 kts 310°
2026-04-26 18:57 44.80345 -68.82249 175 ft 118 kts 316°
2026-04-26 18:57 44.80661 -68.82692 179 ft 76 kts 315°
2026-04-26 18:57 44.80948 -68.83102 183 ft 33 kts 313°
2026-04-26 18:57 44.81080 -68.83292 184 ft 17 kts 316°
2026-04-26 18:58 44.81147 -68.83320 188 ft 10 kts 15°
2026-04-26 18:58 44.81200 -68.83262 188 ft 10 kts 42°
2026-04-26 18:58 44.81247 -68.83199 184 ft 9 kts 44°
2026-04-26 18:58 44.81293 -68.83137 183 ft 9 kts 44°
2026-04-26 18:59 44.81317 -68.83061 184 ft 9 kts 96°
2026-04-26 18:59 44.81284 -68.82990 183 ft 9 kts 133°
2026-04-26 18:59 44.81239 -68.82924 183 ft 10 kts 134°
2026-04-26 18:59 44.81190 -68.82850 182 ft 11 kts 132°
2026-04-26 19:00 44.81135 -68.82774 181 ft 11 kts 136°
2026-04-26 19:00 44.81078 -68.82691 181 ft 12 kts 132°
2026-04-26 19:00 44.81016 -68.82605 180 ft 13 kts 137°
2026-04-26 19:00 44.80980 -68.82523 179 ft 6 kts 91°
2026-04-26 19:01 44.80984 -68.82503 179 ft 1 kts 72°
2026-04-26 19:01 44.80986 -68.82496 179 ft 1 kts 62°
2026-04-26 19:01 44.80991 -68.82490 179 ft 1 kts 44°
2026-04-26 19:01 44.80998 -68.82482 179 ft 2 kts 38°
2026-04-26 19:02 44.81020 -68.82455 175 ft 5 kts 43°
2026-04-26 19:02 44.81044 -68.82419 179 ft 5 kts 63°
2026-04-26 19:02 44.81045 -68.82369 179 ft 5 kts 96°
2026-04-26 19:02 44.81045 -68.82336 179 ft 4 kts 83°
2026-04-26 19:03 44.81049 -68.82318 179 ft 0 kts 65°
2026-04-26 19:03 44.81050 -68.82316 179 ft 1 kts 67°
2026-04-26 19:03 44.81050 -68.82314 179 ft 0 kts 66°